[Date Prev][Date Next][Thread Prev][Thread Next] - [Date Index][Thread Index][Author Index]
2 Line ISS Keps 8-10
- Subject: [sarex] 2 Line ISS Keps 8-10
- From: "Dave Larsen PhD" <doc@xxxxxxxxxxx>
- Date: Tue, 10 Aug 2004 05:43:27 -0700
ISS
1 25544U 98067A 04223.45490422 .00013845 00000-0 11404-3 0 4147
2 25544 51.6333 48.7541 0005813 100.1675 355.5973 15.70690282326849
----
Via the sarex mailing list at AMSAT.ORG courtesy of AMSAT-NA.
To unsubscribe, send "unsubscribe sarex" to Majordomo@amsat.org
AMSAT Home